Council Bluffs, IA

9:02 AM CDT on July 24, 2017 (GMT -0500)
Council Bluffs Municipal

Weather History for KCBF - May, 2013

Change the Weather History Date:

Thursday, May 30, 2013

  Actual Average Record
Temperature  
Mean Temperature 65 °F -  
Max Temperature 71 °F 74 °F 93 °F (2002)
Min Temperature 59 °F 55 °F 44 °F (2005)
Growing Degree Days 15 (Base 50)    
Moisture  
Dew Point 62 °F    
Average Humidity 88    
Maximum Humidity 100    
Minimum Humidity 69    
Precipitation  
Precipitation 0.54 in - - ()
Sea Level Pressure  
Sea Level Pressure 29.58 in    
Wind  
Wind Speed 14 mph (South)    
Max Wind Speed 22 mph    
Max Gust Speed 31 mph    
Visibility 10 miles    
Events Rain    
Averages and records for this station are not official NWS values.
T = Trace of Precipitation, MM = Missing Value Source: NWS Daily Summary

Daily Weather History Graph

Daily Weather History Graph

Search for Another Location

Airport or City:

Trip Planner

Search our weather history database for the weather conditions in past years. The results will help you decide how hot, cold, wet, or windy it might be!

Date:

Astronomy

May. 30, 2013 Rise Set
Actual Time 5:53 AM CDT 8:48 PM CDT
Civil Twilight 5:20 AM CDT 9:21 PM CDT
Nautical Twilight 4:38 AM CDT 10:03 PM CDT
Astronomical Twilight 3:50 AM CDT 10:51 PM CDT
Moon 12:47 AM CDT (5/30) 12:05 PM CDT (5/30)
Length of Visible Light 16h 01m
Length of Day
14h 55m
Waning Gibbous, 62% of the Moon is Illuminated
May 30
Waning Gibbous
May 31
Last Quarter
Jun 8
New
Jun 16
First Quarter
Jun 23
Full

Hourly Weather History & Observations

Time (CDT) Temp. Dew Point Humidity Pressure Visibility Wind Dir Wind Speed Gust Speed Precip Events Conditions
12:15 AM 62.6 °F 62.6 °F 100% 29.58 in 10.0 mi SSE 12.7 mph 18.4 mph N/A   Mostly Cloudy
12:35 AM 62.6 °F 62.6 °F 100% 29.58 in 10.0 mi SE 16.1 mph - N/A   Mostly Cloudy
12:55 AM 62.6 °F 62.6 °F 100% 29.57 in 10.0 mi SSE 10.4 mph 17.3 mph N/A   Light Drizzle
1:15 AM 62.6 °F 62.6 °F 100% 29.57 in 5.0 mi SSE 17.3 mph 23.0 mph N/A Rain Light Rain
1:35 AM 62.6 °F 62.6 °F 100% 29.61 in 2.5 mi SW 17.3 mph 25.3 mph N/A Rain Heavy Rain
1:55 AM 62.6 °F 62.6 °F 100% 29.59 in 1.8 mi SSE 15.0 mph - 0.46 in Rain Rain
2:15 AM 62.6 °F 62.6 °F 100% 29.57 in 8.0 mi SSE 13.8 mph - N/A Rain Light Rain
2:35 AM 62.6 °F 62.6 °F 100% 29.53 in 8.0 mi ESE 15.0 mph - N/A Rain Light Rain
2:55 AM 62.6 °F 62.6 °F 100% 29.51 in 10.0 mi SE 13.8 mph 20.7 mph 0.04 in   Mostly Cloudy
3:15 AM 62.6 °F 62.6 °F 100% 29.54 in 10.0 mi South 12.7 mph 19.6 mph N/A   Mostly Cloudy
3:35 AM 62.6 °F 62.6 °F 100% 29.53 in 10.0 mi SE 16.1 mph - N/A   Mostly Cloudy
3:55 AM 64.4 °F 64.4 °F 100% 29.54 in 10.0 mi South 17.3 mph 24.2 mph N/A   Overcast
4:15 AM 64.4 °F 64.4 °F 100% 29.54 in 10.0 mi South 16.1 mph 23.0 mph N/A   Overcast
4:35 AM 62.6 °F 62.6 °F 100% 29.55 in 10.0 mi South 15.0 mph - N/A   Overcast
4:55 AM 64.4 °F 64.4 °F 100% 29.57 in 10.0 mi South 21.9 mph - N/A   Overcast
5:15 AM 62.6 °F 62.6 °F 100% 29.56 in 10.0 mi SSW 17.3 mph 27.6 mph N/A   Mostly Cloudy
5:35 AM 62.6 °F 62.6 °F 100% 29.58 in 10.0 mi SSW 18.4 mph - N/A   Mostly Cloudy
5:55 AM 62.6 °F 62.6 °F 100% 29.59 in 10.0 mi SSW 17.3 mph 25.3 mph N/A   Scattered Clouds
6:15 AM 62.6 °F 60.8 °F 94% 29.55 in 10.0 mi South 17.3 mph 25.3 mph N/A   Partly Cloudy
6:35 AM 62.6 °F 60.8 °F 94% 29.56 in 10.0 mi South 13.8 mph 21.9 mph N/A   Clear
6:55 AM 62.6 °F 60.8 °F 94% 29.58 in 10.0 mi South 18.4 mph - N/A   Clear
7:15 AM 62.6 °F 60.8 °F 94% 29.59 in 10.0 mi SSW 17.3 mph 24.2 mph N/A   Partly Cloudy
7:35 AM 62.6 °F 60.8 °F 94% 29.60 in 10.0 mi SSW 16.1 mph 28.8 mph N/A   Mostly Cloudy
7:55 AM 62.6 °F 60.8 °F 94% 29.60 in 10.0 mi South 18.4 mph 25.3 mph N/A   Scattered Clouds
8:15 AM 64.4 °F 60.8 °F 88% 29.59 in 10.0 mi South 18.4 mph - N/A   Scattered Clouds
8:35 AM 64.4 °F 60.8 °F 88% 29.60 in 10.0 mi SSW 12.7 mph 23.0 mph N/A   Partly Cloudy
8:55 AM 64.4 °F 60.8 °F 88% 29.60 in 10.0 mi South 12.7 mph 19.6 mph N/A   Clear
9:15 AM 62.6 °F 60.8 °F 94% 29.60 in 10.0 mi South 12.7 mph - N/A   Light Drizzle
9:35 AM 62.6 °F 62.6 °F 100% 29.61 in 7.0 mi South 10.4 mph - N/A Rain Light Rain
9:55 AM 62.6 °F 62.6 °F 100% 29.62 in 6.0 mi South 12.7 mph 18.4 mph 0.01 in Rain Light Rain
10:15 AM 62.6 °F 62.6 °F 100% 29.61 in 10.0 mi South 8.1 mph 13.8 mph N/A   Mostly Cloudy
10:35 AM 62.6 °F 62.6 °F 100% 29.60 in 10.0 mi South 10.4 mph - N/A   Mostly Cloudy
10:55 AM 64.4 °F 62.6 °F 94% 29.61 in 10.0 mi South 10.4 mph 16.1 mph N/A   Mostly Cloudy
11:15 AM 62.6 °F 62.6 °F 100% 29.61 in 10.0 mi SSW 5.8 mph 12.7 mph N/A   Overcast
11:35 AM 64.4 °F 62.6 °F 94% 29.61 in 10.0 mi South 11.5 mph - N/A   Overcast
11:55 AM 64.4 °F 62.6 °F 94% 29.61 in 10.0 mi South 8.1 mph 15.0 mph N/A   Overcast
12:15 PM 66.2 °F 62.6 °F 88% 29.62 in 10.0 mi South 11.5 mph - N/A   Overcast
12:35 PM 66.2 °F 62.6 °F 88% 29.60 in 10.0 mi South 15.0 mph - N/A   Overcast
12:55 PM 68.0 °F 64.4 °F 88% 29.60 in 10.0 mi South 13.8 mph - N/A   Mostly Cloudy
1:15 PM 69.8 °F 62.6 °F 78% 29.58 in 10.0 mi South 13.8 mph - N/A   Mostly Cloudy
1:35 PM 69.8 °F 62.6 °F 78% 29.58 in 10.0 mi SSE 16.1 mph - N/A   Partly Cloudy
1:55 PM 69.8 °F 64.4 °F 83% 29.57 in 10.0 mi South 13.8 mph - N/A   Scattered Clouds
2:15 PM 69.8 °F 62.6 °F 78% 29.56 in 10.0 mi South 16.1 mph - N/A   Mostly Cloudy
2:35 PM 69.8 °F 62.6 °F 78% 29.55 in 10.0 mi SSE 13.8 mph - N/A   Overcast
2:55 PM 71.6 °F 62.6 °F 73% 29.54 in 10.0 mi South 15.0 mph - N/A   Mostly Cloudy
3:15 PM 71.6 °F 62.6 °F 73% 29.54 in 10.0 mi SSW 12.7 mph 19.6 mph N/A   Partly Cloudy
3:35 PM 71.6 °F 60.8 °F 69% 29.55 in 10.0 mi SSW 18.4 mph - N/A   Partly Cloudy
3:55 PM 71.6 °F 60.8 °F 69% 29.57 in 10.0 mi SW 18.4 mph - N/A   Scattered Clouds
4:15 PM 71.6 °F 62.6 °F 73% 29.56 in 10.0 mi SSW 16.1 mph 26.5 mph N/A   Mostly Cloudy
4:35 PM 71.6 °F 62.6 °F 73% 29.56 in 10.0 mi SSW 13.8 mph 21.9 mph N/A   Mostly Cloudy
4:55 PM 71.6 °F 62.6 °F 73% 29.56 in 10.0 mi South 12.7 mph - N/A   Scattered Clouds
5:15 PM 69.8 °F 62.6 °F 78% 29.55 in 10.0 mi South 13.8 mph - N/A   Clear
5:35 PM 69.8 °F 62.6 °F 78% 29.54 in 10.0 mi South 11.5 mph - N/A   Clear
5:55 PM 71.6 °F 62.6 °F 73% 29.55 in 10.0 mi South 11.5 mph 19.6 mph N/A   Clear
6:15 PM 71.6 °F 64.4 °F 78% 29.55 in 10.0 mi SSW 12.7 mph 20.7 mph N/A   Clear
6:35 PM 71.6 °F 62.6 °F 73% 29.55 in 10.0 mi SSW 13.8 mph 21.9 mph N/A   Clear
6:55 PM 71.6 °F 64.4 °F 78% 29.55 in 10.0 mi South 15.0 mph 23.0 mph N/A   Clear
7:15 PM 69.8 °F 62.6 °F 78% 29.56 in 10.0 mi South 12.7 mph 18.4 mph N/A   Clear
7:35 PM 69.8 °F 62.6 °F 78% 29.56 in 10.0 mi South 12.7 mph 20.7 mph N/A   Clear
7:55 PM 69.8 °F 62.6 °F 78% 29.58 in 10.0 mi South 13.8 mph 21.9 mph N/A   Light Drizzle
8:15 PM 68.0 °F 64.4 °F 88% 29.58 in 10.0 mi South 8.1 mph 16.1 mph N/A   Mostly Cloudy
8:35 PM 68.0 °F 62.6 °F 83% 29.57 in 10.0 mi South 13.8 mph 20.7 mph N/A   Mostly Cloudy
8:55 PM 62.6 °F 55.4 °F 77% 29.61 in 10.0 mi South 19.6 mph 31.1 mph N/A Rain Light Rain
9:15 PM 60.8 °F 55.4 °F 82% 29.60 in 6.0 mi South 17.3 mph 27.6 mph N/A Rain Light Rain
9:35 PM 62.6 °F 55.4 °F 77% 29.59 in 10.0 mi South 13.8 mph - N/A Rain Light Rain
9:55 PM 62.6 °F 55.4 °F 77% 29.60 in 10.0 mi South 9.2 mph - 0.03 in   Overcast
10:15 PM 62.6 °F 55.4 °F 77% 29.61 in 10.0 mi South 6.9 mph - N/A   Mostly Cloudy
10:35 PM 60.8 °F 55.4 °F 82% 29.63 in 10.0 mi WSW 4.6 mph - N/A   Partly Cloudy
10:55 PM 60.8 °F 55.4 °F 82% 29.64 in 10.0 mi South 11.5 mph - N/A   Clear
11:15 PM 60.8 °F 57.2 °F 88% 29.64 in 10.0 mi SSE 10.4 mph - N/A   Clear
11:35 PM 59.0 °F 57.2 °F 94% 29.65 in 10.0 mi SSE 9.2 mph - N/A   Clear
11:55 PM 59.0 °F 55.4 °F 88% 29.64 in 10.0 mi SSE 6.9 mph - N/A   Clear